This demonstration page uses our WeatherBlox Daily Observations layout. Learn more.

Left ArrowRight Arrow

40.92945, -100.16068

Hourly Observations for October 14, 2021

Temp ( °F °C ) Dew Point ( °F °C ) Humidity (%) Winds ( mph kmh ) Pressure ( in mb ) Visibility ( mi km ) Precip ( " mm )
12:15 am 00:15 Clear 38 3.5 32 -0.2 77 77 WNW 8 13 29.95 1014 10 16 N/A
12:35 am 00:35 Clear 37 2.6 31 -0.5 80 80 NNW 5 7 29.96 1015 10 16 N/A
12:55 am 00:55 Clear 36 2.4 31 -0.5 81 81 NW 7 11 29.95 1014 10 16 N/A
1:15 am 01:15 Clear 35 1.8 31 -0.8 83 83 WNW 7 11 29.96 1015 10 16 N/A
1:35 am 01:35 Clear 36 2.1 31 -0.5 83 83 WNW 6 9 29.97 1015 10 16 N/A
1:55 am 01:55 Clear 35 1.8 31 -0.6 84 84 W 7 11 29.97 1015 10 16 N/A
2:15 am 02:15 Clear 35 1.5 31 -0.6 86 86 WNW 3 6 29.98 1015 10 16 N/A
2:35 am 02:35 Clear 36 2.1 30 -0.9 81 81 N N/A 29.98 1015 10 16 N/A
2:55 am 02:55 Clear 37 2.6 30 -1.1 77 77 N N/A 29.97 1015 10 16 N/A
3:15 am 03:15 Clear 37 2.6 30 -1.1 77 77 N N/A 29.97 1015 10 16 N/A
3:35 am 03:35 Clear 36 2.3 29 -1.4 77 77 WNW 3 6 29.98 1015 10 16 N/A
3:55 am 03:55 Clear 34 1 30 -1.3 85 85 W 3 6 30.00 1016 10 16 N/A
4:15 am 04:15 Clear 32 0.1 29 -1.5 89 89 W 5 7 30.02 1016 10 16 N/A
4:35 am 04:35 Clear 32 undefined 29 -1.5 90 90 SW 3 6 30.02 1016 10 16 N/A
4:55 am 04:55 Clear 32 0.1 30 -1.2 91 91 N N/A 30.03 1017 10 16 N/A
5:15 am 05:15 Clear 32 undefined 29 -1.4 90 90 N N/A 30.03 1017 10 16 N/A
5:35 am 05:35 Clear 31 -0.4 29 -1.6 92 92 WNW 3 6 30.04 1017 10 16 N/A
5:55 am 05:55 Clear 31 -0.5 28 -2 90 90 N N/A 30.05 1018 10 16 N/A
6:15 am 06:15 Clear 30 -1.2 28 -2.3 92 92 N 5 7 30.06 1018 10 16 N/A
6:35 am 06:35 Clear 30 -1 28 -2 93 93 N 6 9 30.06 1018 10 16 N/A
6:55 am 06:55 Clear 30 -1.2 28 -2.2 93 93 N 3 6 30.07 1018 10 16 N/A
7:15 am 07:15 Clear 30 -1.1 28 -2.1 93 93 NNW 6 9 30.07 1018 10 16 N/A
7:35 am 07:35 Partly Cloudy 30 -1 28 -2 93 93 N N/A 30.08 1019 10 16 N/A
7:55 am 07:55 Mostly Cloudy 31 -0.5 29 -1.7 92 92 WNW 3 6 30.08 1019 10 16 N/A
8:15 am 08:15 Partly Cloudy 31 -0.3 29 -1.5 92 92 W 5 7 30.08 1019 10 16 N/A
8:35 am 08:35 Sunny 31 -0.3 30 -1.2 94 94 SW 3 6 30.09 1019 10 16 N/A
8:55 am 08:55 Sunny 32 undefined 31 -0.8 94 94 N N/A 30.09 1019 10 16 N/A
9:15 am 09:15 Sunny 36 2.4 33 0.4 87 87 WNW 6 9 30.07 1018 10 16 N/A
9:35 am 09:35 Partly Cloudy 40 4.3 35 1.8 84 84 NW 8 13 30.04 1017 10 16 N/A
9:55 am 09:55 Mostly Cloudy 42 5.5 34 1.2 74 74 NW 12 19 30.04 1017 10 16 N/A
10:15 am 10:15 Cloudy 43 6 34 1.3 72 72 NW 12 19 30.04 1017 10 16 N/A
10:35 am 10:35 Cloudy 44 6.5 35 1.6 71 71 WNW 6 9 30.04 1017 10 16 N/A
10:55 am 10:55 Cloudy 45 7.3 35 1.7 68 68 NW 8 13 30.03 1017 10 16 N/A
11:15 am 11:15 Cloudy 46 7.7 36 2 68 68 W 9 15 30.02 1017 10 16 N/A
11:35 am 11:35 Cloudy 47 8.1 35 1.6 64 64 NW 10 17 30.02 1017 10 16 N/A
11:55 am 11:55 Cloudy 47 8.4 35 1.5 62 62 W 7 11 30.03 1017 10 16 N/A
12:15 pm 12:15 Cloudy 46 8 36 2.1 67 67 W 8 13 30.03 1017 10 16 N/A
12:35 pm 12:35 Cloudy 47 8.1 35 1.9 65 65 W 7 11 30.03 1017 10 16 N/A
12:55 pm 12:55 Cloudy 47 8.1 35 1.5 63 63 W 7 11 30.03 1017 10 16 N/A
1:15 pm 13:15 Cloudy 47 8.2 35 1.6 63 63 WNW 7 11 30.02 1017 10 16 N/A
1:35 pm 13:35 Cloudy 47 8.4 35 1.8 63 63 W 5 7 30.02 1016 10 16 N/A
1:55 pm 13:55 Cloudy 47 8.5 35 1.7 63 63 W 7 11 30.01 1016 10 16 N/A
2:15 pm 14:15 Cloudy 48 8.9 35 1.7 61 61 WNW 5 7 29.99 1016 10 16 N/A
2:35 pm 14:35 Cloudy 49 9.3 35 1.7 59 59 WNW 5 7 29.98 1015 10 16 N/A
2:55 pm 14:55 Cloudy 51 10.3 35 1.4 54 54 WNW 7 11 29.97 1015 10 16 N/A
3:15 pm 15:15 Cloudy 51 10.5 34 1.3 53 53 NW 6 9 29.97 1015 10 16 N/A
3:35 pm 15:35 Cloudy 52 10.9 33 0.7 50 50 WNW 9 15 29.96 1015 10 16 N/A
3:55 pm 15:55 Cloudy 51 10.5 32 0.1 49 49 NW 9 15 29.97 1015 10 16 N/A
4:15 pm 16:15 Cloudy 51 10.3 34 0.9 52 52 NNW 9 15 29.97 1015 10 16 N/A
4:35 pm 16:35 Cloudy 51 10.6 33 0.3 49 49 NW 12 19 29.97 1015 10 16 N/A
4:55 pm 16:55 Cloudy 51 10.5 34 1.1 52 52 NW 13 20 29.99 1015 10 16 N/A
5:15 pm 17:15 Cloudy 50 9.8 35 1.4 56 56 NNW 20 31 29.98 1015 10 16 N/A
5:35 pm 17:35 Cloudy 48 8.7 36 2.3 64 64 NNW 14 22 30.00 1016 10 16 N/A
5:55 pm 17:55 Cloudy with Drizzle 46 7.7 37 3 72 72 NW 13 20 30.04 1017 10 16 N/A
6:15 pm 18:15 Cloudy with Light Rain 44 6.5 40 4.2 85 85 NW 9 15 30.05 1018 10 16 N/A
6:35 pm 18:35 Cloudy with Light Rain 43 6.2 40 4.6 90 90 NNW 9 15 30.06 1018 10 16 0.02 0.51
6:55 pm 18:55 Cloudy with Light Rain 43 6 40 4.6 91 91 NNW 9 15 30.06 1018 10 16 0.03 0.76
7:15 pm 19:15 Cloudy with Light Rain 43 6 40 4.5 90 90 N N/A 30.06 1018 10 16 N/A
7:35 pm 19:35 Cloudy 42 5.6 40 4.4 92 92 N N/A 30.07 1018 10 16 N/A
7:55 pm 19:55 Mostly Cloudy 42 5.6 40 4.6 93 93 N N/A 30.07 1018 10 16 N/A
8:15 pm 20:15 Mostly Cloudy 42 5.6 40 4.5 93 93 SSE 5 7 30.06 1018 10 16 N/A
8:35 pm 20:35 Cloudy 42 5.5 40 4.6 94 94 N N/A 30.06 1018 10 16 N/A
8:55 pm 20:55 Cloudy 42 5.3 40 4.5 95 95 NW 6 9 30.08 1018 10 16 N/A
9:15 pm 21:15 Mostly Cloudy 41 5.1 40 4.5 96 96 WNW 3 6 30.08 1019 10 16 N/A
9:35 pm 21:35 Partly Cloudy 40 4.5 39 4 97 97 WNW 5 7 30.09 1019 10 16 N/A
9:55 pm 21:55 Clear 39 4 38 3.5 97 97 N N/A 30.11 1020 10 16 N/A
10:15 pm 22:15 Clear 39 3.8 38 3.5 98 98 WNW 6 9 30.11 1020 10 16 N/A
10:35 pm 22:35 Clear 37 2.5 36 2.1 97 97 N N/A 30.12 1020 10 16 N/A
10:55 pm 22:55 Clear 36 2.4 35 1.9 97 97 SW 6 9 30.13 1020 10 16 N/A
11:15 pm 23:15 Clear 37 2.5 36 2 97 97 W 7 11 30.13 1020 10 16 N/A
11:35 pm 23:35 Clear 36 2.3 36 2 98 98 W 5 7 30.13 1020 10 16 N/A
11:55 pm 23:55 Clear 35 1.8 35 1.5 98 98 W 5 7 30.14 1021 10 16 N/A

Powered by AerisWeather